STARLINK-31910, 59664

Orbit data source: Space-Track

STARLINK-31910, 59664 is a payload satellite owned by SpaceX/Seattle (US) in LEO that was launched on Mon, 06 May 2024 UTC via an FALCON 9 launch vehicle from the Air Force Eastern Test Range (AFETR). Payload-class satellites include a variety of spacecraft equipped with specific instruments for various scientific and technological missions. These include communications satellites like Starlink; space stations such as the ISS; scientific satellites like the Hubble; Earth observation satellites from companies like Planet Labs, Umbra, and HawkEye 360; GPS; miniature CubeSats for education and research; and military/defense satellites.

Loading next visibility...
Identifier
59664, 2024-084L
Orbit
LEO
Country
Flag of USUS
Related business
Manufacturer
SpaceX/Seattle
Mission
Operational spacecraft
Bus & Motor
STARLINK V2M, Unknown motor
Mass
730 kg wet, ~700 kg dry
Launch date (UTC)
2024-05-06 (1 year ago)
Launch vehicle
FALCON 9
Launch site
Air Force Eastern Test Range (AFETR)
Object type
Payload
Rocket body
Debris
Shape & HBR
Unknown
Radar Cross Section
Large (>1 m²)

Expand to show TLE details & history
Last TLE update: 10 hours ago

TLE from 10 hours ago
0 STARLINK-31910
1 59664U 24084L   25242.15930393  .00001032  00000-0  47058-4 0  9990
2 59664  43.0014  43.2283 0001278 233.4189 126.6545 15.27559212 75082
Epoch: 2025-08-30T03:49Z
TLE epoch observation values (Epoch: 2025-08-30T03:49:23.859Z)
Latitude
-0.00003°
Longitude
7.28125°
Altitude
483.41 km
Speed
7.625 km/s
True Right ascension
02h 52m 54s
True Declination
0° 00' 00"
Sunlit
Object was in full shadow at epoch
Visualization orbit readout
Latitude
Unknown
Longitude
Unknown
Altitude
Unknown
Speed
Unknown
Apparent Right ascension
Unknown
Apparent Declination
Unknown
Sunlit
N/A
Visualization observer readout
Local Sidereal Time
05:16:53
Azimuth
Unknown
Elevation
Unknown
Doppler factor
Unknown
Orbital elements
Apogee altitude
485.933 km
Perigee altitude
484.179 km
Semi-major axis
6,863.193 km
Eccentricity
0.00013
Inclination
43.0014°
RAAN
43.2283°
Arg. of periapsis
233.4189°
True anomaly
126.66625°
Mean anomaly
126.6545°
Eccentric anomaly
126.66037°
Mean motion
3.81728 °/min
Orbital period
94.31 mins
BSTAR
0.000047058
Loading maneuver chart data...
Computing Atmospheric mass density...
Loading historical data...
Loading historical data...
Loading historical data...
Loading historical data...
Loading historical data...
Loading historical data...
Loading historical data...

Documentation

Showing up to 5 results
|